Tracking 22458 objects as of 2-Mar-2021
HD Live streaming from Space Station
objects crossing your sky now

STARLINK-2004

Track STARLINK-2004 now!
10-day predictions
STARLINK-2004 is classified as:


NORAD ID: 47599
Int'l Code: 2021-009BD
Perigee: 385.8 km
Apogee: 387.4 km
Inclination: 53.1 °
Period: 92.1 minutes
Semi major axis: 6757 km
RCS: Unknown
Launch date: February 4, 2021
Source: United States (US)
Launch site: AIR FORCE EASTERN TEST RANGE (AFETR)
aabbcc
Your satellite tracking list
Your tracking list is empty




NASA's NSSDC Master Catalog

Two Line Element Set (TLE):
1 47599U 21009BD  21060.91667824 -.00092548  00000-0 -10128-2 0  9992
2 47599  53.0542 358.0311 0001165  66.1558 158.2564 15.62845300  1826
Source of the keplerian elements: AFSPC